Location: Antioch
(38.0049°N, 121.8058°W)
Time: 02:42:00
(UTC+00:00)

Cosmos 1354 Rocket - Pass Details

Date: 22 May 2026
Orbit: 761 x 778 km, 74.0° (Epoch: 9 June)

Event Time Altitude Azimuth Distance (km) Brightness Sun altitude
Rises 06:06:33 0° 330° (NNW) 3,232 8.6 -25.4°
Reaches altitude 10° 06:09:10 10° 320° (NW) 2,300 7.5 -25.7°
Maximum altitude 06:13:40 30° 260° (W) 1,331 5.3 -26.1°
Enters shadow 06:14:46 28° 237° (WSW) 1,408 5.3 -26.2°
